www.pogodaiklimat.ru

Погода и климат >> Архив погоды >> Южная Африка >> Скукуза


ПОГОДА в Скукузе

  • Прогноз погоды в Скукузе
  • Монитор погоды в Скукузе

АРХИВ ПОГОДЫ в Скукузе

Время (UTC), дата Ветер
(напр.,м/с)
 
Видим.   Явления Облачность Т
(С)
Тd
(С)
f
(%)
Тe
(С)
Тes
(С)
Комфортность P
(гПа)
Po
(гПа)
Тmin
(С)
Tmax
(С)
R
(мм)
R24
(мм)
S
(см)
06 9.01 Ю 2 н/о н/о +24.5 +19.2 72 +29 +29 душно 852.4 978.2 +18.0
09 9.01 Ю 3 н/о н/о +27.1 +19.8 64 +33 +33 очень
душно
853.6 978.3 +18.0 +27.3
12 9.01 ЮВ 2 н/о н/о +29.9 +19.8 55 +36 +36 очень
душно
853.6 977.1 +18.0 +30.8
15 9.01 ЮВ 2 н/о н/о +30.2 +19.1 51 +36 +36 очень
душно
852.3 975.6 +29.8 +32.9
18 9.01 ЮВ 2 н/о н/о +26.6 +19.6 65 +32 +32 очень
душно
852.2 977.0 +26.6 +32.9
21 9.01 ЮВ 2 н/о н/о +23.1 +19.5 80 +30 +30 очень
душно
852.2 978.6 +23.1 +32.9
00 10.01 ЮВ 1 н/о н/о +22.3 +19.5 84 +28 +28 душно 851.2 977.9 +22.3 +32.9
03 10.01 ЮЗ 1 н/о н/о +21.4 +19.5 89 +26 +26 душно 850.7 977.8 +21.1 +32.9
06 10.01 СВ 1 н/о н/о +25.7 +19.9 70 +31 +31 очень
душно
853.1 978.4 +21.1
09 10.01 З 2 н/о н/о +31.1 +20.3 53 +38 +38 очень
душно
854.8 977.8 +21.1 +31.1
12 10.01 СВ 1 н/о н/о +34.3 +20.9 46 +42 +42 опасность
перегрева
854.0 975.6 +21.1 +35.1
15 10.01 З 1 н/о н/о +32.1 +22.1 56 +41 +41 опасность
перегрева
850.8 973.2 +31.5 +35.1
00 11.01 СЗ 1 н/о н/о +23.6 +20.9 85 +30 +30 очень
душно
847.9 973.8 +23.6 +35.1
03 11.01 штиль 0 н/о н/о +23.1 +20.8 87 +31 +31 очень
душно
849.4 975.6 +22.8 +35.1
06 11.01 Ю 3 н/о н/о +24.6 +20.1 76 +30 +30 очень
душно
852.0 977.7 +22.8
09 11.01 Ю 2 н/о н/о +28.3 +21.4 66 +36 +36 очень
душно
853.5 977.7 +22.8 +28.9
12 11.01 ЮЗ 1 н/о н/о +34.1 +22.4 51 +43 +43 опасность
перегрева
853.4 975.0 +22.8 +34.4
15 11.01 С 1 н/о н/о +33.9 +22.6 52 +44 +44 опасность
перегрева
850.5 972.1 +33.6 +36.4
18 11.01 В 1 н/о н/о +29.5 +23.8 71 +40 +40 очень
душно
849.4 972.8 +28.9 +36.4
21 11.01 С 1 н/о н/о +26.7 +21.3 72 +34 +34 очень
душно
849.6 974.2 +26.3 +36.4
00 12.01 СЗ 1 н/о н/о +23.7 +21.0 85 +30 +30 очень
душно
847.9 973.7 +23.7 +36.4
03 12.01 штиль 0 н/о н/о +22.2 +20.1 88 +28 +28 душно 847.3 973.7 +22.2 +36.4
06 12.01 С 2 н/о н/о +31.1 +20.3 53 +38 +38 очень
душно
851.6 974.4 +22.0
09 12.01 С 3 н/о н/о +38.2 +21.3 38 +45 +45 опасность
перегрева
853.4 973.3 +22.0 +38.2
12 12.01 ЮЗ 1 н/о н/о +41.8 +21.7 32 +49 +49 опасность
перегрева
852.9 971.3 +22.0 +42.4
15 12.01 ЮВ 4 н/о н/о +35.3 +22.5 48 +45 +45 опасность
перегрева
850.9 971.9 +33.9 +42.4
18 12.01 ЮВ 3 н/о н/о +27.6 +19.3 61 +33 +33 очень
душно
851.2 975.5 +27.6 +42.4
21 12.01 Ю 3 н/о н/о +23.7 +18.2 71 +28 +28 душно 852.7 978.9 +23.7 +42.4
00 13.01 Ю 2 н/о н/о +21.8 +17.4 76 +26 +26 душно 852.1 979.1 +21.8 +42.4
03 13.01 ЮЗ 1 н/о н/о +20.2 +17.2 83 +24 +24 комфорт 850.9 978.6 +20.2 +42.4
06 13.01 СВ 1 н/о н/о +23.4 +18.1 72 +29 +29 душно 853.4 979.8 +20.0
09 13.01 СВ 2 н/о н/о +30.3 +20.4 55 +37 +37 очень
душно
855.1 978.5 +20.0 +30.3
12 13.01 СВ 2 н/о н/о +34.3 +22.0 49 +43 +43 опасность
перегрева
854.4 976.0 +20.0 +35.3
15 13.01 СВ 2 н/о н/о +33.5 +22.2 52 +43 +43 опасность
перегрева
852.3 974.1 +33.5 +35.9
18 13.01 В 2 н/о н/о +30.4 +21.9 60 +39 +39 очень
душно
851.8 975.0 +30.3 +35.9
21 13.01 штиль 0 н/о н/о +26.7 +22.8 79 +35 +35 очень
душно
852.2 977.0 +26.4 +35.9
00 14.01 ЮЗ 1 н/о н/о +25.7 +22.2 81 +33 +33 очень
душно
852.7 978.0 +25.2 +35.9
03 14.01 Ю 2 н/о н/о +24.8 +22.1 85 +32 +32 очень
душно
853.6 979.4 +24.7 +35.9
06 14.01 ЮВ 2 н/о н/о +26.8 +22.0 75 +35 +35 очень
душно
855.9 980.9 +24.6
09 14.01 Ю 4 н/о н/о +28.5 +22.6 70 +37 +37 очень
душно
856.4 980.7 +24.6 +29.8
12 14.01 ЮВ 3 н/о н/о +32.7 +22.1 54 +42 +42 опасность
перегрева
856.3 978.7 +24.6 +33.4
15 14.01 Ю 3 н/о н/о +32.5 +21.6 53 +41 +41 опасность
перегрева
854.8 977.2 +32.4 +34.3
18 14.01 ЮВ 2 н/о н/о +27.5 +21.4 69 +35 +35 очень
душно
854.2 978.8 +27.5 +34.3
21 14.01 ЮВ 1 н/о н/о +24.6 +21.1 81 +31 +31 очень
душно
854.3 980.2 +24.5 +34.3
00 15.01 ЮЗ 1 н/о н/о +24.0 +20.8 82 +30 +30 очень
душно
853.1 979.2 +23.9 +34.3
03 15.01 ЮЗ 1 н/о н/о +22.0 +19.9 88 +28 +28 душно 852.2 979.2 +22.0 +34.3
06 15.01 ЮЗ 1 н/о н/о +22.0 +19.9 88 +28 +28 душно 852.2 979.2 +22.0 +34.3
09 15.01 Ю 3 н/о н/о +32.9 +21.3 51 +41 +41 опасность
перегрева
855.8 978.1 +21.7 +33.1
12 15.01 Ю 3 н/о н/о +32.9 +21.3 51 +41 +41 опасность
перегрева
855.8 978.1 +21.7 +33.1
15 15.01 Ю 3 н/о н/о +34.8 +20.3 43 +41 +41 опасность
перегрева
854.3 975.7 +21.7 +35.5
18 15.01 ЮВ 3 н/о н/о +31.7 +21.1 53 +39 +39 очень
душно
852.5 975.1 +31.4 +36.2
21 15.01 ЮЗ 2 н/о н/о +24.8 +19.7 73 +30 +30 душно 854.4 980.2 +24.7 +36.2
00 16.01 ЮЗ 2 н/о н/о +23.4 +19.2 77 +30 +30 очень
душно
852.6 978.9 +23.4 +36.2
03 16.01 ЮЗ 2 н/о н/о +23.4 +19.2 77 +30 +30 очень
душно
852.6 978.9 +23.4 +36.2

 

Местоположение метеостанции Скукуза (Южная Африка): широта -24.98 долгота 31.60 высота над уровнем моря 271 м.

В архиве по умолчанию представлена погода в Скукузе за последнюю неделю. Архивные данные за месяц целиком и за предыдущие месяцы, начиная с января 2011 года, Вы можете получить, выбрав интересующий диапазон дат из раскрывающегося списка и нажав кнопку "Ввод!".


*Определитесь, кто Вы:
робот инопланетянин человек

Внимание! Время в таблицах - всемирное. Для получения местного времени необходимо прибавить поправку, которая равна 2 ч.

Смотрите также архив погоды в соседних городах и на ближайших метеорологических станциях:

Погода в Коматидрааи (Южная Африка) (66 км)
Погода в Граскопе (Южная Африка) (76 км)
Погода в Граскоп-Скуле (Южная Африка) (78 км)
Погода на Базе ВВС Hoedspruit (Южная Африка) (89 км)
Погода в Хоэдспруите (Южная Африка) (89 км)
Погода в Мбомбеле (Южная Африка) (90 км)
Погода в Вувулане (Свазиленд) (100 км)
Погода в Майиване (Свазиленд) (102 км)
Погода в Линденбурге (Южная Африка) (114 км)
Погода в Линденбурге 2 (Южная Африка) (115 км)

Пояснения к столбцам:

Ветер - указаны скорость ветра в м/с - средняя за 10 мин, порывы в срок и между сроками (в фигурных скобках) и направление, откуда дует ветер: С - северный, СВ - северо-восточный, В - восточный, ЮВ - юго-восточный, Ю - южный, ЮЗ - юго-западный, З - западный, СЗ - северо-западный.
Видимость - горизонтальная дальность видимости в метрах или километрах. При видимости от 1 до 10 км при отсутствии осадков обычно наблюдается дымка, при ухудшении видимости до 1 км и менее - туман. В сухую погоду видимость может ухудшаться дымом, пылью или мглою.
Явления - указаны атмосферные явления, наблюдавшиеся в срок или в последний час перед сроком; фигурными скобками обозначены явления, наблюдавшиеся между сроками (за 1-3 часа до срока); квадратными скобками обозначены град или гололедные отложения с указанием их диаметра в мм.
Облачность - указаны через наклонную черту общая и нижняя облачность в баллах и высота нижней границы облаков в метрах; квадратными скобками обозначены формы облаков: Ci - перистые, Cs - перисто-слоистые, Cc - перисто-кучевые, Ac - высококучевые, As - высокослоистые, Sc - слоисто-кучевые, Ns - слоисто-дождевые, Cu - кучевые, Cb - кучево-дождевые. Подробнее классификацию облаков см. в Атласе облаков (PDF).
T - Температура воздуха - температура, измеренная на высоте 2 м над землей.
Td - Температура точки росы - температура, при понижении до которой содержащийся в воздухе водяной пар достигнет насыщения.
f - Относительная влажность воздуха - влажноcть воздуха, измеренная на высоте 2 м над землей.
Te - Эффективная температура - температура, которую ощущает одетый по сезону человек в тени. Характеристика душности погоды. При расчете учитывается влияние влажности воздуха и скорости ветра на теплоощущения человека.
Tes - Эффективная температура на солнце - температура, которую ощущает человек, с поправкой на солнечный нагрев. Характеристика знойности погоды. Зависит от высоты солнца над горизонтом, облачности и скорости ветра. Ночью, в пасмурную погоду, а также при ветре 12 м/с и более поправка равна нулю.
P - Атмосферное давление - приведенное к уровню моря атмосферное давление.
Po - Атмосферное давление - измеренное на уровне метеостанции атмосферное давление.
Tmin - Минимальная температура - минимум температуры воздуха на высоте 2 м над землей.
Tmax - Максимальная температура - максимум температуры воздуха на высоте 2 м над землей.
R - Количество осадков - Количество выпавших осадков за период времени, мм. При наведении курсора мыши на число - период времени, за который выпало указанное количество осадков.
R24 - Количество осадков - Количество выпавших осадков за 24 часа, мм.
S - Снежный покров - Высота снежного покрова, см. При наведении курсора мыши на число - состояние снежного покрова и степень покрытия местности в баллах.